Location: Unspecified
(0.0000°N, 0.0000°E)
Time: 22:34:56
(UTC+00:00)

A-11 Canister half - Visible Passes

Search period start: 22 February 2018 00:00
Search period end: 04 March 2018 00:00
Orbit: 1515 x 1685 km, 47.2° (Epoch: 21 February)

Date Brightness Start Highest point End Pass type
(mag) Time Alt. Az. Time Alt. Az. Time Alt. Az.
22 Feb 11.0 05:22:34 10° N 05:28:03 17° NE 05:33:30 10° E visible
22 Feb 9.9 20:14:43 10° WSW 20:24:12 44° NW 20:29:55 24° N visible
23 Feb 11.0 05:00:14 10° NNE 05:05:05 15° NE 05:09:54 10° ENE visible
23 Feb 9.8 19:51:37 10° WSW 20:01:15 48° NW 20:09:13 16° NNE visible
24 Feb 11.1 04:38:01 10° NNE 04:42:07 13° NE 04:46:10 10° ENE visible
24 Feb 9.8 19:28:32 10° SW 19:38:18 53° NW 19:48:02 10° NNE visible
25 Feb 11.1 04:16:02 10° NNE 04:19:07 12° NE 04:22:11 10° ENE visible
25 Feb 9.7 19:05:28 10° SW 19:15:21 57° NW 19:25:13 10° NNE visible
26 Feb 11.2 03:54:43 10° NE 03:56:07 10° NE 03:57:31 10° NE visible
26 Feb 9.7 18:42:26 10° SW 18:52:25 62° NW 19:02:23 10° NNE visible
26 Feb 11.3 20:56:12 10° NW 20:58:03 11° NW 20:59:56 10° NNW visible
27 Feb 9.5 05:29:29 10° NNW 05:38:35 60° NE 05:47:39 10° SE visible
27 Feb 9.6 18:19:25 10° SW 18:29:28 67° NW 18:39:31 10° NNE visible
27 Feb 11.2 20:31:30 10° WNW 20:35:01 12° NW 20:38:32 10° NNW visible
28 Feb 9.6 05:06:40 10° NNW 05:15:42 55° NE 05:24:40 10° SE visible
28 Feb 11.2 20:07:26 10° WNW 20:11:59 14° NW 20:16:32 10° NNW visible
01 Mar 9.6 04:43:52 10° NNW 04:52:49 51° NE 05:01:39 10° ESE visible
01 Mar 11.2 19:43:36 10° WNW 19:48:58 15° NW 19:54:19 10° NNW visible
02 Mar 9.7 04:21:47 12° NNW 04:29:55 46° NE 04:38:37 10° ESE visible
02 Mar 11.1 19:19:56 10° W 19:25:57 17° NW 19:31:58 10° N visible
03 Mar 9.8 04:01:02 20° N 04:07:02 42° NE 04:15:33 10° ESE visible
03 Mar 11.1 18:56:22 10° W 19:02:56 19° NW 19:09:31 10° N visible
